Flag for U.S.A. Weather past 2 weeks in Cedar Rapids, Iowa, U.S.A.

Now
72 °F

Thundershowers. Passing clouds.


Feels Like: 65 °F
Forecast: 64 / 81 °F
Wind: 3 mph from West

Location: Cedar Rapids Municipal Airport

Current Time: Jul 28, 2015 at 10:49:02 PM

Latest Report: Jul 28, 2015 at 9:52 PM


Visibility: 10 mi

Pressure: 29.91 "Hg

Humidity: 100%

Dew point: 72 °F

Location of Cedar RapidsLocation

Historic Weather in Cedar Rapids — Graph

°F

Cedar Rapids temperature yesterday

Maximum temperature yesterday: 83 °F (at 2:52 PM)
Minimum temperature yesterday: 68 °F (at 5:52 AM)
Average temperature yesterday: 75 °F

Past Weeks' High & Low Weather Summary

 TemperatureHumidityPressure
High91 °F (Jul 17, 2:52 PM)100% (Jul 15, 4:52 AM)30.11 "Hg (Jul 15, 4:52 AM)
Low57 °F (Jul 22, 2:52 AM)44% (Jul 21, 3:52 PM)29.62 "Hg (Jul 14, 2:52 AM)
Average74 °F86%29.88 "Hg
* Reported Jul 13 8:52 PM — Jul 28 8:52 PM, Cedar Rapids, Weather by CustomWeather, © 2015

Note: Actual official high and low records may vary slightly from our data, if they occured in-between our weather recording intervals... More about our weather records

Advertising

Cedar Rapids weather history for previous 24 hours

 ConditionsComfort  
Time TempWeatherWind HumidityBarometerVisibility
8:52 PM
Tue, Jul 28
72 °FThundershowers. Scattered clouds.3 mph100%29.87 "Hg10 mi
7:52 PM72 °FPartly sunny.6 mph97%29.89 "Hg9 mi
6:52 PM74 °FPassing clouds.8 mph91%29.87 "Hg10 mi
6:00 PM73 °FThunderstorms. Scattered clouds.10 mph97%29.86 "Hg10 mi
4:52 PM76 °FThundershowers. Passing clouds.9 mph94%29.88 "Hg9 mi
3:52 PM78 °FScattered clouds.10 mph87%29.89 "Hg10 mi
2:52 PM76 °FSunny.13 mph91%29.86 "Hg10 mi
1:52 PM72 °FSunny.8 mph100%29.85 "Hg10 mi
12:52 PM70 °FPartly sunny.9 mph100%29.93 "Hg10 mi
12:04 PM69 °FStrong thunderstorms. Fog.7 mph100%29.99 "Hg3 mi
10:52 AM79 °FThundershowers. Scattered clouds.5 mph88%29.95 "Hg9 mi
9:52 AM78 °FPassing clouds.13 mph90%29.92 "Hg10 mi
8:52 AM74 °FBroken clouds.8 mph100%29.92 "Hg8 mi
7:52 AM73 °FThundershowers. Overcast.13 mph100%29.92 "Hg7 mi
7:01 AM72 °FThunderstorms. Mostly cloudy.10 mph100%29.92 "Hg3 mi
5:52 AM74 °FThunderstorms. Passing clouds.7 mph97%29.89 "Hg8 mi
4:52 AM73 °FThunderstorms. Passing clouds.8 mph100%29.89 "Hg9 mi
3:52 AM71 °FClear.3 mph100%29.91 "Hg7 mi
2:52 AM71 °FClear.7 mph100%29.90 "Hg7 mi
1:52 AM72 °FPassing clouds.5 mph100%29.92 "Hg7 mi
12:52 AM72 °FPassing clouds.5 mph100%29.93 "Hg8 mi
11:52 PM
Mon, Jul 27
72 °FPassing clouds.5 mph100%29.92 "Hg7 mi
10:52 PM73 °FClear.5 mph100%29.93 "Hg10 mi
Weather by CustomWeather, © 2015

See weather overviewHow to use our weather pages